Home > Weather > Biarritz > Past weeks

Flag for France Weather for the Past 2 Weeks in Biarritz, France

Now
63 °F

Passing clouds.


Feels Like: 63 °F
Forecast: 49 / 59 °F
Wind: 10 mph from West

Location: Biarritz Airport

Current Time: Feb 8, 2016 at 4:42:18 PM

Latest Report: Feb 8, 2016 at 4:00 PM


Visibility: N/A

Pressure: 30.07 "Hg

Humidity: 56%

Dew point: 46 °F

Location of BiarritzLocation

Historic Weather in Biarritz — Graph

°F

Biarritz Temperature Yesterday

Maximum temperature yesterday: 54 °F (at 6:00 PM)
Minimum temperature yesterday: 46 °F (at 2:30 AM)
Average temperature yesterday: 49 °F

High & Low Weather Summary for the Past Weeks

 TemperatureHumidityPressure
High70 °F (Jan 24, 3:00 PM)100% (Jan 26, 5:30 AM)30.69 "Hg (Jan 26, 5:30 AM)
Low36 °F (Feb 5, 6:00 AM)34% (Feb 5, 5:30 PM)29.65 "Hg (Feb 6, 9:30 PM)
Average53 °F75%30.34 "Hg
* Reported Jan 24 3:00 PM — Feb 8 3:30 PM, Biarritz, Weather by CustomWeather, © 2016

Note: Actual official high and low records may vary slightly from our data, if they occured in-between our weather recording intervals... More about our weather records

Advertising

Biarritz Weather History for the Previous 24 Hours

 ConditionsComfort  
Time TempWeatherWind HumidityBarometerVisibility
3:30 PM
Mon, Feb 8
63 °FPassing clouds.9 mph56%30.07 "HgN/A
3:00 PM64 °FSunny.14 mph52%30.09 "Hg10 mi
2:30 PM66 °FPassing clouds.12 mph46%30.09 "HgN/A
2:00 PM66 °FPassing clouds.8 mph46%30.09 "HgN/A
1:30 PM66 °FPassing clouds.6 mph46%30.09 "HgN/A
1:00 PM64 °FPassing clouds.8 mph46%30.09 "HgN/A
12:30 PM64 °FPassing clouds.10 mph46%30.09 "HgN/A
12:00 PM63 °FPassing clouds.10 mph49%30.09 "HgN/A
11:30 AM61 °FPassing clouds.8 mph48%30.12 "HgN/A
11:00 AM59 °FPassing clouds.8 mph55%30.09 "HgN/A
10:30 AM57 °FPassing clouds.7 mph59%30.09 "HgN/A
10:00 AM55 °FPassing clouds.6 mph59%30.09 "HgN/A
9:30 AM52 °FPassing clouds.6 mph67%30.09 "HgN/A
9:00 AM52 °FPassing clouds.5 mph62%30.07 "HgN/A
8:30 AM50 °FPassing clouds.6 mph67%30.07 "HgN/A
8:00 AM50 °FPassing clouds.6 mph67%30.07 "HgN/A
7:30 AM50 °FPassing clouds.7 mph67%30.04 "HgN/A
7:00 AM50 °FPassing clouds.7 mph67%30.04 "HgN/A
6:30 AM50 °FPassing clouds.5 mph67%30.04 "HgN/A
6:00 AM50 °FPassing clouds.3 mph67%30.04 "HgN/A
5:30 AM50 °FPassing clouds.6 mph67%30.04 "HgN/A
5:00 AM52 °FPassing clouds.8 mph62%30.04 "HgN/A
4:30 AM52 °FPassing clouds.10 mph62%30.04 "HgN/A
4:00 AM52 °FPassing clouds.9 mph62%30.04 "HgN/A
3:30 AM52 °FPassing clouds.8 mph62%30.04 "HgN/A
3:00 AM50 °FPartly cloudy.6 mph67%30.04 "HgN/A
2:30 AM50 °FPassing clouds.5 mph67%30.04 "HgN/A
2:00 AM50 °FOvercast.5 mph67%30.04 "HgN/A
1:30 AM50 °FPassing clouds.5 mph67%30.04 "HgN/A
12:30 AM48 °FPassing clouds.7 mph66%30.07 "HgN/A
12:00 AM48 °FPassing clouds.3 mph62%30.07 "HgN/A
11:30 PM
Sun, Feb 7
48 °FClear.3 mph62%30.07 "Hg10 mi
11:00 PM48 °FPassing clouds.3 mph62%30.07 "HgN/A
10:30 PM48 °FPassing clouds.3 mph62%30.07 "HgN/A
10:00 PM48 °FClear.5 mph66%30.07 "Hg10 mi
9:30 PM50 °FClear.2 mph62%30.09 "Hg10 mi
9:00 PM50 °FClear.3 mph67%30.09 "Hg10 mi
8:30 PM50 °FClear.3 mph67%30.09 "Hg10 mi
8:00 PM50 °FMostly cloudy.2 mph71%30.09 "HgN/A
7:30 PM50 °FMostly cloudy.2 mph71%30.09 "HgN/A
7:00 PM52 °FOvercast.5 mph67%30.09 "HgN/A
6:30 PM54 °FMostly cloudy.14 mph63%30.09 "HgN/A
6:00 PM54 °FBroken clouds.10 mph67%30.09 "HgN/A
5:30 PM52 °FCloudy.12 mph72%30.09 "HgN/A
5:00 PM52 °FPartly sunny.14 mph72%30.09 "HgN/A
4:30 PM52 °FBroken clouds.20 mph72%30.09 "HgN/A
4:00 PM52 °FOvercast.17 mph72%30.07 "HgN/A
Weather by CustomWeather, © 2016

See weather overviewHow to use our weather pages